When you browse on this site, cookies collect data to enhance your experience and personalize the content and advertising you see.
Visit our Privacy Policy to learn more. By continuing to use the site, you agree to this use of cookies and data.
  • In Hungary
  • List of Countries
  • For 7 days
  • Water Temperature
  • Weather Map
  • News
  • Weather Widgets
  • user-avatar
    Login

    Hourly Weather Potosi

    Today, 17 February, Monday

    Time Temperature Precipitation Wind Pressure Humidity
    00:00 +11°C° 0.1 mm 1 mps 467 mmHg 73%
    01:00 +11°C° 0.1 mm 1 mps 467 mmHg 74%
    02:00 +11°C° 0.1 mm 1 mps 466 mmHg 75%
    03:00 +10°C° 0.1 mm 1 mps 466 mmHg 75%
    04:00 +10°C° 0.1 mm 1 mps 466 mmHg 75%
    05:00 +9°C° 0.1 mm 0 mps 466 mmHg 75%
    06:00 +10°C° 0.1 mm 1 mps 467 mmHg 70%
    07:00 +11°C° 0.1 mm 1 mps 467 mmHg 65%
    08:00 +12°C° 0.1 mm 1 mps 468 mmHg 60%
    09:00 +13°C° 0.4 mm 1 mps 469 mmHg 55%
    10:00 +14°C° 0.4 mm 1 mps 470 mmHg 51%
    11:00 +16°C° 0.4 mm 2 mps 470 mmHg 46%
    12:00 +16°C° 0.4 mm 2 mps 470 mmHg 45%
    13:00 +17°C° 0.4 mm 2 mps 470 mmHg 44%
    14:00 +17°C° 0.4 mm 2 mps 469 mmHg 43%
    15:00 +16°C° 1.5 mm 2 mps 468 mmHg 51%
    16:00 +14°C° 1.5 mm 2 mps 466 mmHg 59%
    17:00 +12°C° 1.5 mm 3 mps 465 mmHg 67%
    18:00 +12°C° 1.8 mm 2 mps 465 mmHg 68%
    19:00 +10°C° 1.8 mm 2 mps 465 mmHg 70%
    20:00 +10°C° 1.8 mm 2 mps 465 mmHg 71%
    21:00 +11°C° 0.4 mm 1 mps 466 mmHg 72%
    22:00 +11°C° 0.4 mm 1 mps 467 mmHg 73%
    23:00 +10°C° 0.4 mm 0 mps 468 mmHg 74%

    Tomorrow, 18 February, Tuesday

    Time Temperature Precipitation Wind Pressure Humidity
    00:00 +11°C° 1 mm 1 mps 467 mmHg 76%
    01:00 +10°C° 1 mm 1 mps 467 mmHg 77%
    02:00 +9°C° 1 mm 2 mps 467 mmHg 79%
    03:00 +8°C° 2.9 mm 2 mps 466 mmHg 81%
    04:00 +7°C° 2.9 mm 2 mps 466 mmHg 84%
    05:00 +5°C° 2.9 mm 3 mps 465 mmHg 87%
    06:00 +7°C° 0.4 mm 2 mps 466 mmHg 82%
    07:00 +7°C° 0.4 mm 2 mps 467 mmHg 77%
    08:00 +9°C° 0.4 mm 1 mps 468 mmHg 72%
    09:00 +11°C° 0.1 mm 1 mps 469 mmHg 66%
    10:00 +12°C° 0.1 mm 1 mps 470 mmHg 60%
    11:00 +14°C° 0.1 mm 2 mps 471 mmHg 55%
    12:00 +14°C° 0.3 mm 3 mps 471 mmHg 52%
    13:00 +15°C° 0.3 mm 4 mps 471 mmHg 49%
    14:00 +16°C° 0.3 mm 5 mps 471 mmHg 46%
    15:00 +15°C° 0.4 mm 5 mps 470 mmHg 49%
    16:00 +14°C° 0.4 mm 6 mps 470 mmHg 52%
    17:00 +14°C° 0.4 mm 6 mps 469 mmHg 55%
    18:00 +13°C° 0.1 mm 5 mps 469 mmHg 61%
    19:00 +11°C° 0.1 mm 4 mps 469 mmHg 67%
    20:00 +10°C° 0.1 mm 4 mps 468 mmHg 73%
    21:00 +10°C° 0 mm 3 mps 469 mmHg 75%
    22:00 +10°C° 0 mm 2 mps 469 mmHg 77%
    23:00 +9°C° 0 mm 2 mps 469 mmHg 78%

    Day after tomorrow, 19 February, Wednesday

    Time Temperature Precipitation Wind Pressure Humidity
    00:00 +9°C° 0.1 mm 2 mps 469 mmHg 80%
    01:00 +9°C° 0.1 mm 2 mps 468 mmHg 81%
    02:00 +8°C° 0.1 mm 2 mps 468 mmHg 83%
    03:00 +9°C° 0 mm 1 mps 468 mmHg 84%
    04:00 +9°C° 0 mm 1 mps 467 mmHg 86%
    05:00 +9°C° 0 mm 1 mps 467 mmHg 88%
    06:00 +9°C° 0 mm 1 mps 468 mmHg 86%
    07:00 +9°C° 0 mm 1 mps 468 mmHg 84%
    08:00 +9°C° 0 mm 1 mps 468 mmHg 82%
    09:00 +10°C° 0.4 mm 2 mps 469 mmHg 75%
    10:00 +12°C° 0.4 mm 2 mps 470 mmHg 67%
    11:00 +14°C° 0.4 mm 2 mps 471 mmHg 60%
    12:00 +15°C° 1.2 mm 2 mps 470 mmHg 57%
    13:00 +15°C° 1.2 mm 2 mps 470 mmHg 54%
    14:00 +16°C° 1.2 mm 2 mps 470 mmHg 52%
    15:00 +15°C° 1.6 mm 2 mps 468 mmHg 57%
    16:00 +13°C° 1.6 mm 3 mps 467 mmHg 62%
    17:00 +12°C° 1.6 mm 3 mps 466 mmHg 67%
    18:00 +11°C° 2.1 mm 3 mps 466 mmHg 72%
    19:00 +9°C° 2.1 mm 3 mps 465 mmHg 76%
    20:00 +8°C° 2.1 mm 2 mps 465 mmHg 81%
    21:00 +9°C° 0.1 mm 2 mps 466 mmHg 78%
    22:00 +11°C° 0.1 mm 1 mps 467 mmHg 75%
    23:00 +11°C° 0.1 mm 1 mps 468 mmHg 71%

    20 February, Thursday

    Time Temperature Precipitation Wind Pressure Humidity
    00:00 +11°C° 0.1 mm 1 mps 467 mmHg 74%
    01:00 +10°C° 0.1 mm 1 mps 467 mmHg 76%
    02:00 +10°C° 0.1 mm 1 mps 466 mmHg 78%
    03:00 +10°C° 0.1 mm 1 mps 466 mmHg 80%
    04:00 +10°C° 0.1 mm 1 mps 466 mmHg 81%
    05:00 +9°C° 0.1 mm 1 mps 466 mmHg 82%
    06:00 +10°C° 0.2 mm 1 mps 467 mmHg 81%
    07:00 +10°C° 0.2 mm 1 mps 467 mmHg 80%
    08:00 +9°C° 0.2 mm 2 mps 468 mmHg 78%
    09:00 +9°C° 0.7 mm 2 mps 468 mmHg 77%
    10:00 +10°C° 0.7 mm 3 mps 469 mmHg 75%
    11:00 +10°C° 0.7 mm 3 mps 469 mmHg 74%
    12:00 +10°C° 0.7 mm 3 mps 469 mmHg 71%
    13:00 +10°C° 0.7 mm 2 mps 469 mmHg 68%
    14:00 +12°C° 0.7 mm 1 mps 469 mmHg 64%
    15:00 +12°C° 0.4 mm 2 mps 468 mmHg 66%
    16:00 +12°C° 0.4 mm 2 mps 468 mmHg 68%
    17:00 +11°C° 0.4 mm 3 mps 468 mmHg 70%
    18:00 +10°C° 0.2 mm 3 mps 468 mmHg 74%
    19:00 +9°C° 0.2 mm 3 mps 467 mmHg 78%
    20:00 +9°C° 0.2 mm 2 mps 467 mmHg 83%
    21:00 +8°C° 0.1 mm 2 mps 467 mmHg 84%
    22:00 +8°C° 0.1 mm 2 mps 468 mmHg 85%
    23:00 +8°C° 0.1 mm 2 mps 468 mmHg 87%

    21 February, Friday

    Time Temperature Precipitation Wind Pressure Humidity
    00:00 +8°C° 1.1 mm 2 mps 467 mmHg 88%
    01:00 +7°C° 1.1 mm 2 mps 467 mmHg 90%
    02:00 +7°C° 1.1 mm 2 mps 467 mmHg 92%
    09:00 +6°C° 1.2 mm 2 mps 468 mmHg 90%
    10:00 +6°C° 1.2 mm 2 mps 468 mmHg 91%
    11:00 +6°C° 1.2 mm 2 mps 468 mmHg 91%
    12:00 +6°C° 0.7 mm 2 mps 468 mmHg 91%
    13:00 +6°C° 0.7 mm 2 mps 468 mmHg 91%
    14:00 +7°C° 0.7 mm 1 mps 468 mmHg 90%
    15:00 +7°C° 0.2 mm 2 mps 468 mmHg 89%
    16:00 +7°C° 0.2 mm 2 mps 467 mmHg 87%
    17:00 +7°C° 0.2 mm 2 mps 467 mmHg 86%
    18:00 +7°C° 0.1 mm 2 mps 467 mmHg 87%
    19:00 +7°C° 0.1 mm 2 mps 467 mmHg 88%
    20:00 +6°C° 0.1 mm 2 mps 467 mmHg 88%
    21:00 +6°C° 0 mm 2 mps 468 mmHg 90%
    22:00 +6°C° 0 mm 2 mps 468 mmHg 91%
    23:00 +6°C° 0 mm 2 mps 468 mmHg 92%

    22 February, Saturday

    Time Temperature Precipitation Wind Pressure Humidity
    00:00 +6°C° 0 mm 1 mps 467 mmHg 92%
    01:00 +6°C° 0 mm 1 mps 467 mmHg 91%
    02:00 +6°C° 0 mm 1 mps 467 mmHg 91%
    03:00 +6°C° 0 mm 1 mps 467 mmHg 91%
    04:00 +6°C° 0 mm 1 mps 466 mmHg 91%
    05:00 +5°C° 0 mm 0 mps 466 mmHg 91%
    06:00 +5°C° 0 mm 0 mps 467 mmHg 88%
    07:00 +6°C° 0 mm 0 mps 467 mmHg 85%
    08:00 +6°C° 0 mm 0 mps 468 mmHg 82%
    09:00 +8°C° 0 mm 0 mps 469 mmHg 75%
    10:00 +10°C° 0 mm 1 mps 469 mmHg 68%
    11:00 +12°C° 0 mm 1 mps 470 mmHg 61%
    12:00 +12°C° 0.1 mm 2 mps 470 mmHg 60%
    13:00 +12°C° 0.1 mm 3 mps 470 mmHg 59%
    14:00 +13°C° 0.1 mm 3 mps 469 mmHg 58%
    15:00 +12°C° 0.3 mm 3 mps 469 mmHg 60%
    16:00 +12°C° 0.3 mm 4 mps 468 mmHg 62%
    17:00 +12°C° 0.3 mm 4 mps 468 mmHg 65%
    18:00 +11°C° 0.1 mm 3 mps 467 mmHg 70%
    19:00 +10°C° 0.1 mm 3 mps 467 mmHg 76%
    20:00 +9°C° 0.1 mm 3 mps 466 mmHg 82%
    21:00 +8°C° 0 mm 2 mps 467 mmHg 83%
    22:00 +8°C° 0 mm 2 mps 467 mmHg 84%
    23:00 +8°C° 0 mm 2 mps 468 mmHg 85%
    Show more